JBU23 KDCA-KPBI

Flight info

Callsign JBU23
Flight time 2h 2m
Altitude 36000
Route JDUBB4 RRSIN GSO Q83 JEVED Q97 KENLL CPTAN3
Aircraft A320/M-SDE3FGHIRWY/LB1

Departure

Time 2026-04-20 21:30
Airport Ronald Reagan Washington National Airport (KDCA)

Arrival

Time 2026-04-20 23:32
Airport Palm Beach International Airport (KPBI)
Time Latitude Longitude Altitude Speed Heading
2026-04-20 20:44 38.85363 -77.04152 24 ft 0 kts 349°
2026-04-20 21:19 38.85352 -77.04150 27 ft 2 kts 349°
2026-04-20 21:19 38.85341 -77.04147 26 ft 2 kts 349°
2026-04-20 21:20 38.85319 -77.04141 25 ft 2 kts
2026-04-20 21:20 38.85308 -77.04143 24 ft 2 kts 37°
2026-04-20 21:20 38.85312 -77.04133 25 ft 1 kts 69°
2026-04-20 21:20 38.85314 -77.04119 27 ft 2 kts 77°
2026-04-20 21:21 38.85317 -77.04103 26 ft 2 kts 73°
2026-04-20 21:21 38.85322 -77.04085 26 ft 2 kts 72°
2026-04-20 21:21 38.85324 -77.04074 24 ft 0 kts 72°
2026-04-20 21:23 38.85325 -77.04074 24 ft 0 kts 72°
2026-04-20 21:23 38.85333 -77.04042 24 ft 7 kts 72°
2026-04-20 21:23 38.85299 -77.03991 24 ft 12 kts 176°
2026-04-20 21:24 38.85195 -77.03981 24 ft 17 kts 175°
2026-04-20 21:24 38.85071 -77.03969 24 ft 19 kts 175°
2026-04-20 21:24 38.84936 -77.03955 24 ft 20 kts 175°
2026-04-20 21:24 38.84880 -77.03939 24 ft 7 kts 130°
2026-04-20 21:25 38.84850 -77.03886 24 ft 9 kts 167°
2026-04-20 21:25 38.84767 -77.03878 24 ft 14 kts 175°
2026-04-20 21:25 38.84658 -77.03867 25 ft 18 kts 175°
2026-04-20 21:25 38.84512 -77.03852 24 ft 23 kts 175°
2026-04-20 21:26 38.84373 -77.03838 27 ft 14 kts 175°
2026-04-20 21:26 38.84297 -77.03831 27 ft 12 kts 175°
2026-04-20 21:26 38.84228 -77.03797 24 ft 4 kts 131°
2026-04-20 21:26 38.84225 -77.03790 24 ft 0 kts 122°
2026-04-20 21:28 38.84223 -77.03786 24 ft 3 kts 122°
2026-04-20 21:28 38.84206 -77.03752 24 ft 7 kts 123°
2026-04-20 21:29 38.84190 -77.03686 24 ft 8 kts 57°
2026-04-20 21:29 38.84255 -77.03686 24 ft 16 kts 354°
2026-04-20 21:29 38.84657 -77.03727 24 ft 99 kts 355°
2026-04-20 21:29 38.85565 -77.03816 119 ft 152 kts 351°
2026-04-20 21:30 38.86621 -77.03951 1017 ft 152 kts 345°
2026-04-20 21:30 38.87632 -77.04537 1707 ft 173 kts 323°
2026-04-20 21:30 38.88628 -77.05543 2135 ft 193 kts 321°
2026-04-20 21:30 38.89708 -77.06717 2663 ft 207 kts 316°
2026-04-20 21:31 38.90534 -77.08267 3390 ft 221 kts 299°
2026-04-20 21:31 38.91314 -77.10075 3925 ft 238 kts 305°
2026-04-20 21:31 38.92519 -77.11501 4767 ft 243 kts 328°
2026-04-20 21:31 38.93988 -77.12613 5693 ft 246 kts 328°
2026-04-20 21:32 38.95426 -77.13813 6613 ft 248 kts 319°
2026-04-20 21:32 38.96536 -77.15514 7474 ft 252 kts 301°
2026-04-20 21:32 38.97151 -77.17629 8362 ft 255 kts 282°
2026-04-20 21:32 38.97439 -77.19890 9263 ft 257 kts 282°
2026-04-20 21:33 38.97728 -77.22130 10176 ft 257 kts 281°
2026-04-20 21:33 38.97777 -77.24508 10517 ft 283 kts 261°
2026-04-20 21:33 38.96810 -77.26833 10819 ft 311 kts 232°
2026-04-20 21:33 38.95150 -77.28671 11574 ft 320 kts 220°
2026-04-20 21:34 38.93213 -77.30137 12299 ft 329 kts 211°
2026-04-20 21:34 38.91073 -77.31272 13003 ft 335 kts 208°
2026-04-20 21:34 38.88898 -77.32397 13697 ft 339 kts 208°
2026-04-20 21:34 38.86691 -77.33530 14344 ft 343 kts 208°
2026-04-20 21:35 38.84453 -77.34662 14942 ft 347 kts 208°
2026-04-20 21:35 38.82215 -77.35779 15527 ft 351 kts 208°
2026-04-20 21:35 38.79914 -77.36919 16112 ft 355 kts 208°
2026-04-20 21:35 38.77596 -77.38064 16687 ft 359 kts 208°
2026-04-20 21:36 38.75251 -77.39219 17275 ft 362 kts 208°
2026-04-20 21:36 38.72882 -77.40385 17846 ft 366 kts 208°
2026-04-20 21:36 38.70504 -77.41558 18431 ft 370 kts 208°
2026-04-20 21:36 38.68089 -77.42747 18963 ft 374 kts 209°
2026-04-20 21:37 38.65649 -77.43946 19479 ft 377 kts 209°
2026-04-20 21:37 38.63187 -77.45156 19988 ft 381 kts 209°
2026-04-20 21:37 38.60698 -77.46377 20496 ft 385 kts 209°
2026-04-20 21:37 38.58188 -77.47610 20974 ft 388 kts 210°
2026-04-20 21:38 38.55653 -77.48856 21463 ft 391 kts 210°
2026-04-20 21:38 38.53096 -77.50111 21926 ft 395 kts 210°
2026-04-20 21:38 38.50513 -77.51378 22358 ft 399 kts 210°
2026-04-20 21:38 38.47944 -77.52639 22795 ft 402 kts 210°
2026-04-20 21:39 38.45315 -77.53926 23242 ft 406 kts 210°
2026-04-20 21:39 38.42661 -77.55224 23685 ft 410 kts 211°
2026-04-20 21:39 38.40047 -77.56669 24054 ft 407 kts 217°
2026-04-20 21:39 38.37607 -77.58452 24432 ft 401 kts 224°
2026-04-20 21:40 38.35296 -77.60435 24869 ft 400 kts 224°
2026-04-20 21:40 38.32981 -77.62420 25365 ft 399 kts 224°
2026-04-20 21:40 38.30677 -77.64395 25855 ft 397 kts 225°
2026-04-20 21:40 38.28551 -77.66510 26334 ft 389 kts 231°
2026-04-20 21:41 38.26484 -77.68741 26828 ft 389 kts 231°
2026-04-20 21:41 38.24421 -77.70960 27327 ft 388 kts 231°
2026-04-20 21:41 38.22362 -77.73171 27827 ft 387 kts 231°
2026-04-20 21:41 38.20306 -77.75376 28328 ft 386 kts 231°
2026-04-20 21:42 38.18255 -77.77573 28829 ft 385 kts 231°
2026-04-20 21:42 38.16207 -77.79759 29315 ft 384 kts 231°
2026-04-20 21:42 38.14161 -77.81942 29807 ft 383 kts 231°
2026-04-20 21:42 38.12124 -77.84115 30306 ft 382 kts 231°
2026-04-20 21:43 38.10089 -77.86283 30715 ft 381 kts 230°
2026-04-20 21:43 38.08059 -77.88449 31129 ft 380 kts 230°
2026-04-20 21:43 38.06063 -77.90580 31537 ft 379 kts 230°
2026-04-20 21:43 38.04042 -77.92734 31947 ft 378 kts 230°
2026-04-20 21:44 38.02030 -77.94876 32342 ft 377 kts 230°
2026-04-20 21:44 38.00022 -77.97010 32717 ft 376 kts 230°
2026-04-20 21:44 37.98016 -77.99141 33091 ft 375 kts 230°
2026-04-20 21:44 37.96019 -78.01263 33461 ft 374 kts 230°
2026-04-20 21:45 37.94024 -78.03380 33819 ft 373 kts 230°
2026-04-20 21:45 37.92035 -78.05488 34179 ft 372 kts 230°
2026-04-20 21:45 37.90074 -78.07567 34469 ft 372 kts 230°
2026-04-20 21:45 37.88057 -78.09709 34609 ft 376 kts 230°
2026-04-20 21:46 37.86067 -78.11821 34719 ft 380 kts 229°
2026-04-20 21:46 37.81933 -78.16203 34707 ft 397 kts 229°
2026-04-20 21:47 37.77607 -78.20784 34648 ft 415 kts 229°
2026-04-20 21:47 37.73071 -78.25561 34592 ft 433 kts 228°
2026-04-20 21:48 37.68393 -78.30465 35211 ft 431 kts 228°
2026-04-20 21:48 37.66118 -78.32826 35705 ft 426 kts 228°
2026-04-20 21:48 37.63830 -78.35209 36035 ft 425 kts 228°
2026-04-20 21:48 37.61549 -78.37598 36186 ft 426 kts 228°
2026-04-20 21:49 37.59271 -78.39991 36221 ft 429 kts 228°
2026-04-20 21:49 37.54619 -78.44893 36215 ft 443 kts 228°
2026-04-20 21:50 37.49828 -78.49897 36211 ft 449 kts 227°
2026-04-20 21:50 37.44997 -78.54910 36209 ft 450 kts 227°
2026-04-20 21:51 37.40176 -78.59885 36212 ft 450 kts 227°
2026-04-20 21:51 37.35321 -78.64885 36208 ft 450 kts 227°
2026-04-20 21:52 37.30466 -78.69873 36208 ft 451 kts 227°
2026-04-20 21:52 37.25608 -78.74865 36206 ft 451 kts 227°
2026-04-20 21:53 37.20748 -78.79855 36205 ft 451 kts 227°
2026-04-20 21:53 37.15915 -78.84801 36206 ft 451 kts 227°
2026-04-20 21:54 37.11043 -78.89775 36208 ft 452 kts 227°
2026-04-20 21:54 37.06160 -78.94756 36213 ft 452 kts 227°
2026-04-20 21:55 37.01279 -78.99726 36212 ft 452 kts 227°
2026-04-20 21:55 36.96419 -79.04669 36213 ft 452 kts 227°
2026-04-20 21:56 36.91546 -79.09634 36221 ft 452 kts 228°
2026-04-20 21:56 36.86683 -79.14635 36213 ft 452 kts 228°
2026-04-20 21:57 36.81825 -79.19633 36213 ft 452 kts 228°
2026-04-20 21:57 36.76988 -79.24582 36214 ft 453 kts 228°
2026-04-20 21:58 36.72104 -79.29560 36216 ft 453 kts 228°
2026-04-20 21:58 36.67207 -79.34540 36208 ft 454 kts 228°
2026-04-20 21:59 36.62339 -79.39496 36205 ft 454 kts 228°
2026-04-20 21:59 36.58262 -79.43644 36206 ft 454 kts 228°
2026-04-20 22:00 36.53357 -79.48619 36209 ft 455 kts 228°
2026-04-20 22:00 36.48449 -79.53591 36208 ft 455 kts 228°
2026-04-20 22:01 36.43534 -79.58560 36213 ft 456 kts 228°
2026-04-20 22:01 36.38613 -79.63515 36240 ft 455 kts 228°
2026-04-20 22:02 36.33673 -79.68470 36217 ft 456 kts 228°
2026-04-20 22:02 36.28781 -79.73395 36228 ft 455 kts 228°
2026-04-20 22:03 36.23867 -79.78344 36215 ft 454 kts 228°
2026-04-20 22:03 36.18959 -79.83278 36210 ft 453 kts 227°
2026-04-20 22:04 36.14053 -79.88185 36210 ft 453 kts 227°
2026-04-20 22:04 36.09144 -79.93080 36213 ft 453 kts 227°
2026-04-20 22:05 36.04037 -79.97703 36219 ft 464 kts 217°
2026-04-20 22:05 35.98052 -80.00880 36214 ft 472 kts 210°
2026-04-20 22:06 35.91947 -80.03876 36222 ft 471 kts 210°
2026-04-20 22:06 35.85861 -80.06889 36217 ft 470 kts 210°
2026-04-20 22:07 35.79777 -80.09897 36229 ft 469 kts 210°
2026-04-20 22:07 35.73718 -80.12877 36226 ft 468 kts 210°
2026-04-20 22:08 35.67715 -80.15821 36230 ft 467 kts 210°
2026-04-20 22:08 35.61677 -80.18785 36223 ft 466 kts 211°
2026-04-20 22:09 35.55650 -80.21740 36255 ft 465 kts 211°
2026-04-20 22:09 35.49634 -80.24679 36258 ft 465 kts 210°
2026-04-20 22:10 35.43629 -80.27603 36262 ft 463 kts 211°
2026-04-20 22:10 35.37472 -80.30104 36253 ft 475 kts 199°
2026-04-20 22:11 35.30946 -80.31353 36252 ft 477 kts 197°
2026-04-20 22:11 35.24388 -80.32587 36249 ft 476 kts 197°
2026-04-20 22:12 35.17854 -80.33825 36234 ft 474 kts 197°
2026-04-20 22:12 35.11338 -80.35055 36230 ft 473 kts 198°
2026-04-20 22:13 35.04833 -80.36283 36237 ft 471 kts 198°
2026-04-20 22:13 34.98360 -80.37504 36230 ft 470 kts 198°
2026-04-20 22:14 34.91946 -80.38715 36238 ft 468 kts 198°
2026-04-20 22:14 34.85515 -80.39929 36233 ft 467 kts 198°
2026-04-20 22:15 34.79093 -80.41132 36243 ft 465 kts 198°
2026-04-20 22:15 34.72700 -80.42327 36243 ft 464 kts 198°
2026-04-20 22:16 34.66319 -80.43526 36251 ft 463 kts 198°
2026-04-20 22:16 34.59996 -80.44712 36246 ft 462 kts 198°
2026-04-20 22:17 34.53641 -80.45896 36248 ft 461 kts 198°
2026-04-20 22:17 34.47302 -80.47073 36240 ft 460 kts 198°
2026-04-20 22:18 34.40979 -80.48248 36242 ft 459 kts 198°
2026-04-20 22:18 34.34661 -80.49424 36238 ft 459 kts 199°
2026-04-20 22:19 34.28354 -80.50595 36240 ft 458 kts 199°
2026-04-20 22:19 34.22186 -80.52150 36234 ft 450 kts 204°
2026-04-20 22:20 34.16142 -80.53963 36233 ft 450 kts 204°
2026-04-20 22:20 34.10071 -80.55780 36214 ft 449 kts 204°
2026-04-20 22:21 34.04013 -80.57597 36222 ft 448 kts 204°
2026-04-20 22:21 33.97960 -80.59406 36219 ft 447 kts 204°
2026-04-20 22:22 33.91917 -80.61213 36223 ft 446 kts 204°
2026-04-20 22:22 33.85882 -80.63007 36216 ft 446 kts 204°
2026-04-20 22:23 33.79859 -80.64785 36222 ft 445 kts 204°
2026-04-20 22:23 33.73849 -80.66567 36224 ft 444 kts 204°
2026-04-20 22:24 33.67860 -80.68351 36235 ft 443 kts 204°
2026-04-20 22:24 33.61881 -80.70122 36241 ft 442 kts 204°
2026-04-20 22:25 33.55954 -80.71877 36241 ft 441 kts 204°
2026-04-20 22:25 33.49999 -80.73635 36232 ft 441 kts 204°
2026-04-20 22:26 33.44044 -80.75388 36232 ft 440 kts 204°
2026-04-20 22:26 33.38094 -80.77138 36226 ft 440 kts 205°
2026-04-20 22:27 33.29175 -80.79760 36235 ft 440 kts 205°
2026-04-20 22:27 33.23225 -80.81498 36231 ft 440 kts 205°
2026-04-20 22:28 33.17276 -80.83234 36241 ft 440 kts 205°
2026-04-20 22:28 33.11328 -80.84968 36243 ft 440 kts 205°
2026-04-20 22:29 33.05380 -80.86702 36249 ft 440 kts 205°
2026-04-20 22:29 32.99430 -80.88444 36244 ft 440 kts 205°
2026-04-20 22:30 32.93477 -80.90184 36241 ft 440 kts 205°
2026-04-20 22:30 32.87556 -80.91900 36237 ft 441 kts 205°
2026-04-20 22:31 32.81598 -80.93618 36236 ft 441 kts 205°
2026-04-20 22:31 32.75630 -80.95340 36236 ft 441 kts 205°
2026-04-20 22:32 32.69666 -80.97071 36237 ft 441 kts 205°
2026-04-20 22:32 32.63692 -80.98803 36235 ft 441 kts 205°
2026-04-20 22:33 32.57728 -81.00524 36239 ft 442 kts 205°
2026-04-20 22:33 32.51676 -81.01895 36238 ft 457 kts 195°
2026-04-20 22:34 32.45251 -81.02038 36235 ft 463 kts 192°
2026-04-20 22:34 32.38812 -81.02144 36242 ft 463 kts 192°
2026-04-20 22:35 32.32329 -81.02252 36251 ft 462 kts 192°
2026-04-20 22:35 32.25942 -81.02364 36254 ft 462 kts 193°
2026-04-20 22:36 32.19519 -81.02483 36259 ft 461 kts 193°
2026-04-20 22:36 32.13095 -81.02599 36260 ft 461 kts 192°
2026-04-20 22:37 32.06676 -81.02708 36224 ft 460 kts 192°
2026-04-20 22:37 32.00275 -81.02821 36222 ft 459 kts 192°
2026-04-20 22:38 31.93891 -81.02973 36221 ft 458 kts 193°
2026-04-20 22:38 31.87525 -81.03161 36232 ft 457 kts 193°
2026-04-20 22:39 31.81202 -81.03351 36240 ft 457 kts 193°
2026-04-20 22:39 31.74845 -81.03528 36250 ft 456 kts 193°
2026-04-20 22:40 31.68484 -81.03696 36250 ft 456 kts 193°
2026-04-20 22:40 31.62136 -81.03866 36256 ft 456 kts 193°
2026-04-20 22:41 31.55827 -81.04064 36249 ft 455 kts 194°
2026-04-20 22:41 31.49526 -81.04461 36260 ft 452 kts 195°
2026-04-20 22:42 31.43244 -81.04933 36253 ft 452 kts 195°
2026-04-20 22:42 31.36959 -81.05361 36265 ft 452 kts 195°
2026-04-20 22:43 31.30677 -81.05762 36263 ft 452 kts 195°
2026-04-20 22:43 31.24400 -81.06158 36267 ft 452 kts 194°
2026-04-20 22:44 31.18088 -81.06368 36267 ft 455 kts 192°
2026-04-20 22:44 31.11755 -81.06428 36273 ft 455 kts 192°
2026-04-20 22:45 31.05432 -81.06503 36269 ft 454 kts 193°
2026-04-20 22:45 31.00187 -81.06606 36272 ft 453 kts 193°
2026-04-20 22:46 30.92867 -81.06777 36274 ft 452 kts 193°
2026-04-20 22:46 30.87600 -81.06892 36273 ft 452 kts 193°
2026-04-20 22:47 30.81308 -81.07017 36279 ft 452 kts 193°
2026-04-20 22:47 30.75026 -81.07143 36277 ft 451 kts 193°
2026-04-20 22:48 30.68787 -81.07272 36281 ft 451 kts 193°
2026-04-20 22:48 30.62520 -81.07403 36277 ft 450 kts 193°
2026-04-20 22:49 30.56285 -81.07690 36271 ft 447 kts 195°
2026-04-20 22:49 30.50086 -81.08124 36269 ft 446 kts 195°
2026-04-20 22:50 30.43883 -81.08554 36268 ft 446 kts 194°
2026-04-20 22:50 30.37671 -81.08930 36267 ft 447 kts 194°
2026-04-20 22:51 30.31458 -81.09284 36267 ft 447 kts 194°
2026-04-20 22:51 30.25249 -81.09650 36261 ft 447 kts 194°
2026-04-20 22:52 30.19041 -81.10024 36259 ft 447 kts 194°
2026-04-20 22:52 30.12823 -81.10399 36258 ft 447 kts 194°
2026-04-20 22:53 30.06605 -81.10768 36259 ft 447 kts 194°
2026-04-20 22:53 30.00388 -81.11138 36264 ft 447 kts 194°
2026-04-20 22:54 29.94169 -81.11512 36261 ft 447 kts 194°
2026-04-20 22:54 29.87999 -81.11893 36263 ft 447 kts 194°
2026-04-20 22:55 29.81782 -81.12263 36263 ft 449 kts 193°
2026-04-20 22:55 29.75515 -81.12385 36263 ft 451 kts 191°
2026-04-20 22:56 29.69220 -81.12350 36257 ft 452 kts 191°
2026-04-20 22:56 29.62927 -81.12324 36255 ft 451 kts 191°
2026-04-20 22:57 29.56652 -81.12353 36258 ft 449 kts 192°
2026-04-20 22:57 29.50530 -81.12403 36242 ft 438 kts 192°
2026-04-20 22:58 29.44442 -81.12443 36231 ft 437 kts 192°
2026-04-20 22:58 29.38351 -81.12482 36212 ft 436 kts 192°
2026-04-20 22:59 29.32278 -81.12523 36203 ft 436 kts 192°
2026-04-20 22:59 29.26248 -81.12571 36193 ft 436 kts 192°
2026-04-20 23:00 29.20170 -81.12622 36169 ft 436 kts 192°
2026-04-20 23:00 29.14106 -81.12677 36162 ft 436 kts 192°
2026-04-20 23:01 29.08042 -81.12735 36154 ft 436 kts 192°
2026-04-20 23:01 29.01976 -81.12799 36151 ft 435 kts 192°
2026-04-20 23:02 28.95916 -81.12881 36140 ft 435 kts 192°
2026-04-20 23:02 28.92856 -81.12716 36126 ft 451 kts 180°
2026-04-20 23:02 28.89801 -81.11591 36122 ft 475 kts 163°
2026-04-20 23:03 28.87001 -81.09500 36122 ft 502 kts 146°
2026-04-20 23:03 28.84629 -81.06470 36122 ft 520 kts 133°
2026-04-20 23:03 28.80346 -80.99794 36117 ft 523 kts 132°
2026-04-20 23:04 28.76075 -80.93082 36093 ft 522 kts 132°
2026-04-20 23:04 28.71815 -80.86460 36084 ft 519 kts 133°
2026-04-20 23:05 28.67493 -80.79865 36074 ft 517 kts 136°
2026-04-20 23:05 28.62339 -80.74383 36075 ft 499 kts 153°
2026-04-20 23:06 28.56352 -80.70827 36072 ft 479 kts 169°
2026-04-20 23:06 28.50063 -80.68302 36112 ft 480 kts 169°
2026-04-20 23:07 28.43767 -80.65757 36001 ft 481 kts 169°
2026-04-20 23:07 28.40616 -80.64477 35752 ft 481 kts 169°
2026-04-20 23:07 28.37463 -80.63192 35260 ft 482 kts 168°
2026-04-20 23:08 28.34288 -80.61906 34367 ft 483 kts 168°
2026-04-20 23:08 28.31141 -80.60629 33374 ft 477 kts 168°
2026-04-20 23:08 28.28036 -80.59368 32435 ft 470 kts 168°
2026-04-20 23:08 28.24942 -80.58119 31518 ft 474 kts 168°
2026-04-20 23:09 28.21811 -80.56866 30554 ft 481 kts 168°
2026-04-20 23:09 28.18628 -80.55595 29392 ft 489 kts 167°
2026-04-20 23:09 28.15407 -80.54307 28314 ft 492 kts 167°
2026-04-20 23:09 28.12154 -80.52999 27118 ft 498 kts 166°
2026-04-20 23:10 28.08865 -80.51673 25825 ft 505 kts 166°
2026-04-20 23:10 28.05531 -80.50327 24696 ft 507 kts 165°
2026-04-20 23:10 28.02291 -80.49012 24265 ft 478 kts 165°
2026-04-20 23:10 27.99299 -80.47791 24062 ft 448 kts 165°
2026-04-20 23:11 27.96439 -80.46623 23585 ft 428 kts 166°
2026-04-20 23:11 27.93667 -80.45506 23310 ft 420 kts 166°
2026-04-20 23:11 27.90920 -80.44415 23036 ft 417 kts 166°
2026-04-20 23:11 27.88183 -80.43334 22772 ft 415 kts 166°
2026-04-20 23:12 27.85459 -80.42256 22513 ft 413 kts 166°
2026-04-20 23:12 27.82749 -80.41176 22188 ft 412 kts 165°
2026-04-20 23:12 27.80040 -80.40094 21594 ft 412 kts 165°
2026-04-20 23:12 27.77344 -80.39018 21118 ft 409 kts 165°
2026-04-20 23:13 27.74705 -80.37959 20515 ft 406 kts 165°
2026-04-20 23:13 27.72073 -80.36899 19872 ft 398 kts 164°
2026-04-20 23:13 27.69475 -80.35855 19308 ft 396 kts 164°
2026-04-20 23:13 27.66878 -80.34814 18752 ft 396 kts 163°
2026-04-20 23:14 27.64356 -80.33576 18210 ft 396 kts 158°
2026-04-20 23:14 27.61872 -80.32269 17670 ft 388 kts 158°
2026-04-20 23:14 27.59447 -80.30985 16868 ft 382 kts 158°
2026-04-20 23:14 27.57050 -80.29712 16327 ft 380 kts 157°
2026-04-20 23:15 27.54662 -80.28445 15782 ft 379 kts 157°
2026-04-20 23:15 27.52272 -80.27179 15288 ft 377 kts 157°
2026-04-20 23:15 27.49921 -80.25935 14733 ft 370 kts 157°
2026-04-20 23:15 27.47602 -80.24709 14189 ft 369 kts 157°
2026-04-20 23:16 27.45279 -80.23484 13657 ft 366 kts 156°
2026-04-20 23:16 27.43000 -80.22283 13099 ft 358 kts 156°
2026-04-20 23:16 27.40778 -80.21116 12603 ft 355 kts 156°
2026-04-20 23:16 27.38546 -80.19947 12095 ft 352 kts 156°
2026-04-20 23:17 27.36343 -80.18794 11585 ft 348 kts 156°
2026-04-20 23:17 27.34153 -80.17645 11086 ft 344 kts 156°
2026-04-20 23:17 27.31995 -80.16513 10599 ft 338 kts 156°
2026-04-20 23:17 27.29930 -80.15428 10385 ft 317 kts 156°
2026-04-20 23:18 27.27972 -80.14398 10106 ft 304 kts 156°
2026-04-20 23:18 27.26063 -80.13392 9935 ft 301 kts 156°
2026-04-20 23:18 27.24159 -80.12407 9894 ft 302 kts 158°
2026-04-20 23:18 27.22230 -80.11460 9593 ft 303 kts 158°
2026-04-20 23:19 27.20288 -80.10530 9202 ft 303 kts 159°
2026-04-20 23:19 27.18360 -80.09613 8905 ft 300 kts 159°
2026-04-20 23:19 27.16442 -80.08699 8431 ft 297 kts 159°
2026-04-20 23:19 27.14556 -80.07795 8030 ft 293 kts 158°
2026-04-20 23:20 27.12695 -80.06896 7642 ft 291 kts 158°
2026-04-20 23:20 27.10868 -80.05997 7262 ft 289 kts 158°
2026-04-20 23:20 27.09031 -80.05085 6878 ft 287 kts 157°
2026-04-20 23:20 27.07201 -80.04176 6494 ft 288 kts 156°
2026-04-20 23:21 27.05357 -80.03261 6093 ft 290 kts 156°
2026-04-20 23:21 27.03516 -80.02351 5783 ft 288 kts 156°
2026-04-20 23:21 27.01686 -80.01447 5469 ft 286 kts 156°
2026-04-20 23:21 26.99878 -80.00554 5020 ft 283 kts 155°
2026-04-20 23:22 26.98091 -79.99683 4669 ft 283 kts 159°
2026-04-20 23:22 26.96165 -79.99249 4326 ft 282 kts 179°
2026-04-20 23:22 26.94237 -79.99569 4018 ft 275 kts 199°
2026-04-20 23:22 26.92551 -80.00570 4013 ft 277 kts 217°
2026-04-20 23:23 26.91018 -80.01891 4014 ft 278 kts 218°
2026-04-20 23:23 26.89482 -80.03208 4015 ft 278 kts 218°
2026-04-20 23:23 26.87943 -80.04521 4010 ft 277 kts 218°
2026-04-20 23:23 26.86406 -80.05834 4008 ft 277 kts 218°
2026-04-20 23:24 26.84890 -80.07132 4010 ft 275 kts 218°
2026-04-20 23:24 26.83411 -80.08404 4007 ft 260 kts 218°
2026-04-20 23:24 26.82029 -80.09622 4004 ft 244 kts 222°
2026-04-20 23:24 26.81013 -80.11059 4008 ft 232 kts 245°
2026-04-20 23:25 26.80520 -80.12754 3981 ft 223 kts 265°
2026-04-20 23:25 26.80410 -80.14442 3757 ft 219 kts 270°
2026-04-20 23:25 26.80381 -80.16145 3420 ft 218 kts 272°
2026-04-20 23:25 26.80370 -80.17840 3017 ft 218 kts 272°
2026-04-20 23:26 26.80364 -80.19538 2602 ft 219 kts 272°
2026-04-20 23:26 26.80353 -80.21238 2260 ft 217 kts 272°
2026-04-20 23:26 26.80340 -80.22909 2037 ft 207 kts 273°
2026-04-20 23:26 26.80208 -80.24485 2001 ft 204 kts 252°
2026-04-20 23:27 26.79367 -80.25734 2006 ft 205 kts 213°
2026-04-20 23:27 26.78079 -80.26324 2009 ft 202 kts 194°
2026-04-20 23:27 26.76712 -80.26755 2004 ft 198 kts 193°
2026-04-20 23:27 26.75436 -80.27135 2018 ft 189 kts 192°
2026-04-20 23:28 26.74171 -80.27469 2011 ft 184 kts 185°
2026-04-20 23:28 26.72958 -80.27230 2005 ft 177 kts 150°
2026-04-20 23:28 26.71904 -80.26539 2009 ft 174 kts 143°
2026-04-20 23:28 26.70888 -80.25798 2008 ft 174 kts 142°
2026-04-20 23:29 26.69883 -80.25030 2010 ft 174 kts 135°
2026-04-20 23:29 26.69142 -80.23993 2009 ft 169 kts 112°
2026-04-20 23:29 26.68834 -80.22795 2001 ft 154 kts 90°
2026-04-20 23:29 26.68782 -80.21623 1929 ft 151 kts 90°
2026-04-20 23:30 26.68733 -80.20459 1769 ft 149 kts 90°
2026-04-20 23:30 26.68684 -80.19306 1613 ft 149 kts 88°
2026-04-20 23:30 26.68635 -80.18149 1414 ft 148 kts 89°
2026-04-20 23:30 26.68602 -80.17390 1282 ft 148 kts 89°
2026-04-20 23:31 26.68553 -80.16241 1083 ft 149 kts 90°
2026-04-20 23:31 26.68504 -80.15082 889 ft 149 kts 88°
2026-04-20 23:31 26.68454 -80.13934 696 ft 146 kts 88°
2026-04-20 23:31 26.68404 -80.12807 475 ft 145 kts 88°
2026-04-20 23:32 26.68356 -80.11703 280 ft 139 kts 89°
2026-04-20 23:32 26.68311 -80.10648 85 ft 136 kts 87°
2026-04-20 23:32 26.68273 -80.09708 29 ft 98 kts 92°
2026-04-20 23:32 26.68247 -80.09154 23 ft 46 kts 92°
2026-04-20 23:33 26.68238 -80.08944 22 ft 16 kts 93°
2026-04-20 23:33 26.68244 -80.08862 22 ft 9 kts 61°
2026-04-20 23:33 26.68309 -80.08845 21 ft 5 kts
2026-04-20 23:33 26.68342 -80.08844 21 ft 6 kts
2026-04-20 23:34 26.68395 -80.08840 22 ft 9 kts
2026-04-20 23:34 26.68442 -80.08872 23 ft 10 kts 283°
2026-04-20 23:34 26.68443 -80.08908 22 ft 2 kts 272°
2026-04-20 23:34 26.68452 -80.08932 24 ft 4 kts 314°
2026-04-20 23:35 26.68477 -80.08935 23 ft 3 kts
2026-04-20 23:35 26.68509 -80.08934 24 ft 2 kts 360°
2026-04-20 23:35 26.68527 -80.08934 28 ft 3 kts
2026-04-20 23:36 26.68531 -80.08934 27 ft 0 kts